Погода в Пржевальском

Россия / Смоленская область     55°30′25″N   31°51′01″E
темп.,
°C
ветер,
м/с
пор.,
м/с
влажн.,
%
обл.,
%
осадки,
мм/ч
давл.,
гПа
погр.,
м
20 апреля, вт
вт2000:00+7всв3875100 0.0 1021690
03:00+6всв3882100 0.0 1020571
06:00+5всв3883100 0.0 1019693
09:00+4всв4888100 0.1 1019746
12:00+5в5781100 0.0 1018813
15:00+3всв3796100 0.4 1017608
18:00+4всв2797100 0.2 1015612
21:00+4всв3993100 0.3 1014714
21 апреля, ср
ср2100:00+3всв2587100 0.0 1012571
03:00+3с2591100 0.1 1010388
06:00+2ссз3695100 0.1 1008472
09:00+3сз3790100 0.1 1006649
12:00+5зсз4781100 0.1 1006880
15:00+7з4676100 0.4 1006997
18:00+8зюз367299 0.3 1006914
21:00+4ююз278855 0.3 1008144
22 апреля, чт
чт2200:00+4ююз3128883 0.0 1008295
03:00+5ююз41189100 0.1 1008338
06:00+4ю3119697 0.1 1009319
09:00+8ююз478172 0.1 1010446
12:00+13юз47575 0.9 10101494
15:00+13ююз476094 1.7 10111440
18:00+13ю366533 0.5 10111129
21:00+8ююз279019 0.8 1012138
23 апреля, пт
пт2300:00+7ю229280 0.0 101227
03:00+6ююв2893100 0.0 1011149
06:00+7ю41291100 0.1 1011522
09:00+5зсз3590100 0.1 1013333
12:00+6зюз2387100 0.1 1013539
15:00+5з2595100 2.4 1012602
18:00+4з3697100 1.6 1012534
21:00+3ююз3694100 1.7 1012362
24 апреля, сб
сб2400:00+3ююз4895100 0.5 1012674
03:00+1ююз389749 0.5 1011311
06:00+1ююз3898100 0.0 1010338
09:00+2ю3698100 0.1 1010350
12:00+2зюз3697100 1.6 1010434
15:00+4сз597397 2.6 10121278
18:00+5з37596 0.2 10121343
21:00+1юз24845 0.4 101364